Погода в Бетьках

Россия / Республика Татарстан     55°40′30″N   52°08′23″E
темп.,
°C
ветер,
м/с
пор.,
м/с
влажн.,
%
обл.,
%
осадки,
мм/ч
давл.,
гПа
погр.,
м
10 августа, ср
ср1000:00+19св2281100 1.6 101826
03:00+18сз118486 1.6 101811
06:00+20вюв11787 0.0 101859
09:00+25з11595 0.0 1018495
12:00+28з2247100 0.0 10171408
15:00+29з344527 0.0 10172144
18:00+25з36624 0.0 1017160
21:00+19сз35896 0.8 101899
11 августа, чт
чт1100:00+17сз2293100 0.9 101832
03:00+16ссз229487 1.0 101941
06:00+17с368174 0.0 1021286
09:00+19с465863 0.0 1022635
12:00+23ссз454488 0.0 10221372
15:00+23ссз5542100 0.0 10211666
18:00+20с37561 0.0 1022216
21:00+15св22670 0.0 102311
12 августа, пт
пт1200:00+14ююз11708 0.0 102310
03:00+13з22734 0.0 102323
06:00+15зюз2469100 0.0 1023134
09:00+21з465394 0.0 1023780
12:00+23з5645100 0.0 10221943
15:00+24з574427 0.0 10211865
18:00+21з366125 0.0 1020162
21:00+16зюз36790 0.0 102185
13 августа, сб
сб1300:00+15зюз33800 0.0 102140
03:00+14з35790 0.0 102184
06:00+16зюз37710 0.0 1021209
09:00+22зсз56554 0.0 1021650
12:00+26сз56465 0.0 10201779
15:00+26сз564022 0.0 10202037
18:00+22сз37589 0.0 1020186
21:00+18с2271100 0.0 102129
14 августа, вс
вс1400:00+16ссв227360 0.0 102222
03:00+13ссв22775 0.0 102214
06:00+15св23704 0.0 1023133
09:00+21всв33465 0.0 1023754
12:00+23св33385 0.0 10231681
15:00+24св323634 0.0 10221735
18:00+21всв335116 0.0 102243
21:00+16в225630 0.0 102311